Location: Utrecht
(52.0917°N, 5.1178°E)
Time: 00:30:50
(UTC+02:00)

Envisat - Visible Passes

Search period start: 25 June 2017 00:00
Search period end: 05 July 2017 00:00
Orbit: 764 x 766 km, 98.2° (Epoch: 23 June)

Date Brightness Start Highest point End Pass type
(mag) Time Alt. Az. Time Alt. Az. Time Alt. Az.
25 Jun 5.6 23:13:03 10° WSW 23:15:27 13° W 23:17:51 10° NW visible
28 Jun 5.5 23:01:05 10° SW 23:04:12 16° W 23:07:21 10° NW visible
01 Jul 5.4 22:49:19 10° SW 22:52:58 20° W 22:56:39 10° NW visible
03 Jul 5.7 23:17:01 10° WSW 23:18:59 12° W 23:20:58 10° WNW visible
